Torna al catalogo

ICEYE-X25

AttivoScienzaPO
NORAD 56963·PAYLOAD·🇫🇮 Finland

Lanciato Jun 12, 2023 da Vandenberg Space Force Base

Loading…

Prossimi Passaggi (prossime 24 ore)

TLE

AggiornatoSource: Space-Track

Epoca: Sep 14, 2026, 14:13 UTC

1 56963U 23084AH  26257.59266615  .00030263  00000-0  29579-3 0  9997
2 56963  97.5981  50.5075 0002895 344.3422  15.7747 15.66121223181941

Traccia ICEYE-X25 in tempo reale con AllMySat

Download on the App Store